{"data":{"norad_id":51801,"intl_designator":"2022-017AK","name":"STARLINK-3592","alt_names":[],"object_type":"PAYLOAD","status":"ACTIVE","operator":null,"country":"US","launch_date":"2022-02-25","launch_site_code":"AFWTR","launch_vehicle":null,"mission":null,"orbit_class":"UNKNOWN","rcs_meters":null,"size_class":null,"mass_kg":null,"dimensions":null,"purposes":["comms"],"wikipedia_slug":null,"has_3d_model":false,"image_url":null,"decayed_at":null,"tle_current":{"epoch":"2026-05-24T23:52:24.582144Z","epoch_age_seconds":75843,"freshness":"FRESH","line1":"1 51801U 22017AK  26144.99472896  .00000555  00000+0  52964-4 0  9992","line2":"2 51801  53.2135   6.5742 0001460  98.2786 261.8371 15.08838770235444","mean_motion":15.0883877,"eccentricity":0.000146,"inclination_deg":53.2135,"raan_deg":6.5742,"arg_perigee_deg":98.2786,"mean_anomaly_deg":261.8371,"bstar":5.2964e-5,"rev_number":23544,"period_min":95.437632478121,"perigee_km":538.7371374989,"apogee_km":540.75715967028,"semimajor_km":6917.8841485846,"source":"CELESTRAK","updated_at":"2026-05-25T13:38:16.956397Z"}}}